TimeCDT,TemperatureF,Dew PointF,Humidity,Sea Level PressureIn,VisibilityMPH,Wind Direction,Wind SpeedMPH,Gust SpeedMPH,PrecipitationIn,Events,Conditions,WindDirDegrees,DateUTC
12:54 AM,39.2,32.0,75,29.83,10.0,WNW,5.8,-,N/A,,Mostly Cloudy,290,2011-10-18 05:54:00
2:54 AM,36.0,30.9,82,29.83,10.0,South,6.9,-,N/A,,Mostly Cloudy,170,2011-10-18 07:54:00
3:54 AM,36.0,30.9,82,29.83,10.0,Calm,Calm,-,N/A,,Mostly Cloudy,0,2011-10-18 08:54:00
4:54 AM,37.0,32.0,82,29.85,10.0,Calm,Calm,-,N/A,,Overcast,0,2011-10-18 09:54:00
5:54 AM,37.4,32.0,81,29.84,10.0,Calm,Calm,-,N/A,,Overcast,0,2011-10-18 10:54:00
6:54 AM,36.0,32.0,86,29.85,10.0,Calm,Calm,-,N/A,,Overcast,0,2011-10-18 11:54:00
7:54 AM,37.9,32.0,79,29.85,10.0,Calm,Calm,-,N/A,,Overcast,0,2011-10-18 12:54:00
8:54 AM,39.9,34.0,79,29.88,10.0,Calm,Calm,-,N/A,,Overcast,0,2011-10-18 13:54:00
9:54 AM,44.1,33.1,65,29.89,10.0,NNW,6.9,-,N/A,,Overcast,340,2011-10-18 14:54:00
10:54 AM,46.9,33.1,59,29.88,10.0,North,9.2,-,N/A,,Overcast,360,2011-10-18 15:54:00
11:54 AM,50.0,35.1,57,29.87,10.0,North,12.7,-,N/A,,Overcast,10,2011-10-18 16:54:00
12:54 PM,52.0,36.0,54,29.86,10.0,NNE,11.5,-,N/A,,Overcast,20,2011-10-18 17:54:00
1:54 PM,55.0,37.0,51,29.87,10.0,NNE,9.2,-,N/A,,Overcast,20,2011-10-18 18:54:00
2:54 PM,53.1,36.0,52,29.87,10.0,North,10.4,-,N/A,,Overcast,360,2011-10-18 19:54:00
3:54 PM,51.1,35.1,54,29.88,10.0,North,12.7,-,N/A,,Overcast,350,2011-10-18 20:54:00
4:54 PM,50.0,35.1,57,29.88,10.0,North,10.4,-,N/A,,Overcast,350,2011-10-18 21:54:00
5:54 PM,48.9,35.1,59,29.88,10.0,NNW,8.1,-,N/A,,Overcast,340,2011-10-18 22:54:00
6:54 PM,48.9,35.1,59,29.90,10.0,NNW,6.9,-,N/A,,Overcast,340,2011-10-18 23:54:00
7:54 PM,48.0,36.0,63,29.90,10.0,NNW,8.1,-,N/A,,Overcast,330,2011-10-19 00:54:00
8:54 PM,46.9,36.0,66,29.90,10.0,NNW,5.8,-,N/A,,Overcast,340,2011-10-19 01:54:00
9:54 PM,46.9,37.0,68,29.90,10.0,North,4.6,-,N/A,,Overcast,10,2011-10-19 02:54:00
10:54 PM,46.4,37.4,71,29.89,10.0,North,8.1,-,N/A,,Overcast,10,2011-10-19 03:54:00
11:54 PM,46.9,37.9,71,29.89,10.0,NNE,9.2,-,N/A,,Overcast,20,2011-10-19 04:54:00